GW4098 Weather Reports


time (UTC)temp
C
wind
direction
speed
KPH
gust
KPH
rain 1hr
cm
rain 24hr
cm
rain mn
cm
humidity
%
barometer
mb
20260505153031 5 13 4.8 12.9 0.00 0.00 0.00 57 1014.6
20260505151527 5 305 3.2 8.0 0.00 0.00 0.00 58 1014.7
20260505124507 3 243 9.7 12.9 0.00 0.00 0.00 62 1013.8
20260505123004 3 271 6.4 9.7 0.00 0.00 0.00 59 1013.8
20260505121502 3 263 6.4 9.7 0.00 0.00 0.00 59 1013.8
20260505120002 3 40 3.2 14.5 0.00 0.00 0.00 57 1013.8
20260505114600 3 338 3.2 22.5 0.00 0.00 0.00 57 1013.7
20260505113107 3 360 11.3 27.4 0.00 0.00 0.00 54 1013.7
20260505111555 3 325 6.4 9.7 0.00 0.00 0.00 52 1013.6
20260505101549 3 5 1.6 3.2 0.00 0.00 0.00 52 1013.2
20260505100149 3 5 1.6 4.8 0.00 0.00 0.00 52 1013.1
20260505094549 3 337 3.2 6.4 0.00 0.00 0.00 51 1013.0
20260505093046 3 264 1.6 4.8 0.00 0.00 0.00 52 1012.8
20260505091601 3 264 3.2 6.4 0.00 0.00 0.00 52 1012.7
20260505090050 3 264 3.2 6.4 0.00 0.00 0.00 52 1012.6
20260505084600 3 264 3.2 6.4 0.00 0.00 0.00 53 1012.7
20260505083059 3 264 3.2 6.4 0.00 0.00 0.00 52 1012.7
20260505081555 3 245 3.2 6.4 0.00 0.00 0.00 52 1012.7
20260505080055 3 295 0.0 6.4 0.00 0.00 0.00 51 1012.7
20260505074541 3 160 1.6 8.0 0.00 0.00 0.00 51 1012.4
20260505073049 3 55 0.0 4.8 0.00 0.00 0.00 50 1012.6
20260505071545 3 55 3.2 6.4 0.00 0.00 0.00 51 1012.3
20260505070043 3 39 3.2 6.4 0.00 0.00 0.00 51 1012.3
20260505064536 3 71 1.6 4.8 0.00 0.00 0.00 52 1012.2
20260505063038 3 71 1.6 6.4 0.00 0.00 0.00 52 1012.1
20260505061531 3 76 4.8 8.0 0.00 0.00 0.00 50 1012.0
20260505060050 4 82 4.8 6.4 0.00 0.00 0.00 50 1011.9
20260505054523 3 56 3.2 4.8 0.00 0.00 0.00 50 1011.8
20260505053021 4 56 3.2 9.7 0.00 0.00 0.00 48 1011.7
20260505051519 4 57 6.4 9.7 0.00 0.00 0.00 47 1011.4
20260505041509 6 48 11.3 22.5 0.00 0.00 0.00 43 1011.1
20260505040007 6 54 16.1 20.9 0.00 0.00 0.00 42 1011.0
20260505034506 6 55 16.1 22.5 0.00 0.00 0.00 42 1010.9
20260505033004 6 47 12.9 17.7 0.00 0.00 0.00 40 1010.5
20260505031602 6 42 14.5 25.7 0.00 0.00 0.00 38 1010.2
20260505030119 7 36 16.1 27.4 0.00 0.00 0.00 35 1009.8
20260505024601 8 28 19.3 29.0 0.00 0.00 0.00 33 1009.6
20260505023055 8 18 14.5 24.1 0.00 0.00 0.00 27 1009.3
20260505021553 10 30 16.1 25.7 0.00 0.00 0.00 25 1008.9
20260505020051 10 22 17.7 29.0 0.00 0.00 0.00 24 1008.6
20260505014606 11 12 25.7 33.8 0.00 0.00 0.00 22 1008.4
20260505013052 11 338 17.7 29.0 0.00 0.00 0.00 20 1008.3
20260505011553 11 340 25.7 40.2 0.00 0.00 0.00 20 1008.1
20260505010058 12 349 27.4 35.4 0.00 0.00 0.00 20 1008.2
20260505004551 12 347 27.4 41.8 0.00 0.00 0.00 21 1008.2
20260505003056 12 327 30.6 40.2 0.00 0.00 0.00 22 1008.3
20260505001547 12 344 29.0 43.5 0.00 0.00 0.00 22 1008.1
20260505000051 12 360 32.2 40.2 0.00 0.00 0.00 23 1008.0
20260504234546 12 11 27.4 41.8 0.00 0.00 0.00 22 1008.1
20260504233046 12 337 27.4 43.5 0.00 0.00 0.00 25 1008.1
20260504231544 12 332 29.0 40.2 0.00 0.00 0.00 26 1008.0
20260504230043 11 329 27.4 43.5 0.00 0.00 0.00 27 1008.0
20260504224541 11 327 22.5 38.6 0.00 0.00 0.00 28 1007.9
20260504223056 12 360 25.7 33.8 0.00 0.00 0.00 28 1007.8
20260504221540 12 338 22.5 37.0 0.00 0.00 0.00 28 1007.8
20260504220040 12 360 25.7 41.8 0.00 0.00 0.00 28 1007.7
20260504214539 12 355 30.6 41.8 0.00 0.00 0.00 29 1007.7
20260504213040 12 350 30.6 41.8 0.00 0.00 0.00 29 1007.8
20260504211601 12 344 20.9 40.2 0.00 0.00 0.00 30 1007.7
20260504210043 12 326 24.1 37.0 0.00 0.00 0.00 30 1007.7
20260504204536 12 344 24.1 37.0 0.00 0.00 0.00 31 1007.6
20260504203035 13 311 27.4 40.2 0.00 0.00 0.00 30 1007.6
20260504201535 13 315 29.0 41.8 0.00 0.00 0.00 31 1007.6
20260504200035 12 299 20.9 43.5 0.00 0.00 0.00 31 1007.1
20260504194533 12 360 20.9 46.7 0.00 0.00 0.00 31 1007.2
20260504193032 13 290 24.1 40.2 0.00 0.00 0.00 32 1007.2
20260504191534 13 314 27.4 46.7 0.00 0.00 0.00 31 1007.1
20260504190029 12 325 29.0 37.0 0.00 0.00 0.00 32 1007.3
20260504184542 12 323 20.9 38.6 0.00 0.00 0.00 34 1007.3
20260504183028 12 340 25.7 33.8 0.00 0.00 0.00 35 1007.5
20260504181531 12 333 20.9 38.6 0.00 0.00 0.00 36 1007.5
20260504180027 12 336 25.7 35.4 0.00 0.00 0.00 35 1007.5
20260504174526 12 325 30.6 40.2 0.00 0.00 0.00 34 1007.5
20260504173028 12 341 24.1 38.6 0.00 0.00 0.00 35 1007.3
20260504171524 11 304 24.1 43.5 0.00 0.00 0.00 40 1007.4